Location: Aulnoy
(48.8410°N, 3.0967°E)
Time: 09:48:25
(UTC+00:00)

Cosmos 1812 Rocket - Pass Details

Date: 09 February 2023
Orbit: 603 x 631 km, 82.5° (Epoch: 23 March)

Event Time Altitude Azimuth Distance (km) Brightness Sun altitude
Rises 19:02:50 0° 347° (NNW) 2,935 7.2 -20.9°
Reaches altitude 10° 19:05:07 10° 344° (NNW) 2,019 6.4 -21.3°
Maximum altitude 19:09:32 62° 265° (W) 706 4.0 -22.0°
Drops below altitude 10° 19:13:53 10° 184° (S) 1,988 6.2 -22.7°
Sets 19:16:06 0° 181° (S) 2,884 7.0 -23.1°
